DELTA 1 DEB

Satellite information

Favourite Embed

Satellite Type and Status

DEBRISIN ORBIT

Key statistics

Satellite DELTA 1 DEB at a glance.

Uptime

17231

Days in orbit

Revolutions

≈ 14.0

Per day

Orbit

SSO

Sun Synchronous Orbit

Inclination

98.9

Latest

Satellite identification and parameters

Extended collection of information and parameters for DELTA 1 DEB.

Object identification

Identified? True

Debris? True

Object name: DELTA 1 DEB

International designator: 1978-026HY

Object number (NORAD): 37637

Object ID (CCSDS): 37637

Country: UNITED STATES OF AMERICA (US)

Current information (Y/N): Y

RCS size: SMALL

Orbital parameters

Period: 103.142 minutes

Inclination: 98.9328 deg

SMA: 7285.333 km

Apoapsis: 959.62 km

Periapsis: 854.776 km

RAAN: 79.7011 deg

Eccentricy: 0.0071956

Argument of periapsis: 254.9607 deg

Mean anomaly: 104.3584 deg

Mean motion: 13.96139011 rev/day

Mean motion (dot): 0.00000868 rev/day2

B* drag term: 0.00064914 1/REarth

Two-line elements (TLE)

Creation date: May 8, 2025, 3:01 a.m.

Reference frame: TEME

Reference center: EARTH

Epoch: May 7, 2025, 2:01 a.m. UTC

TLE line 0: 0 DELTA 1 DEB

TLE line 1: 1 37637U 78026HY 25127.08457760 .00000868 00000-0 64914-3 0 9992

TLE line 2: 2 37637 98.9328 79.7011 0071956 254.9607 104.3584 13.96139011138442

Live tracking on map

Real-time ground track for satellite DELTA 1 DEB.

In-orbit conjunctions

A list of the most updated potential collisions computed for object DELTA 1 DEB.

Target Orbit TCA Probability of collision Miss distance Type
COSMOS 1349 LEO 2024-06-11 00:07:13 0.002315462 216.0 (m) PAYLOAD

Associated space launch

Earth observation satellite

DELTA 1 DEB was lifted into orbit during the mission ‘Delta 2910 | Landsat 3’, on board a Delta 2910 space rocket.

The launch took place on March 5, 1978, 5:54 p.m. from Space Launch Complex 2W.

For more information about the launch, click the button.

Launch to space Delta 2910 | Landsat 3
Delta 2910 | Landsat 3

Agency: N/A

Status: Launch Successful

Launch date: March 5, 1978, 5:54 p.m. UTC

Rocket: Delta 2910

Launch pad: Space Launch Complex 2W

Location: Vandenberg SFB, CA, USA

...

Latest news about this satellite

There are no fresh news available about this satellite. Check back as we update our databases every day.


Newsletter sign-up

Weekly statistics, charts and insights to help you stay on top of the space industry.